Location: Le Vau Breton
(47.1387°N, 0.2558°E)
Time: 19:54:06
(UTC+00:00)

Daily predictions for brighter satellites

Satellite Brightness Start Highest point End
(mag) Time Altitude Azimuth Time Altitude Azimuth Time Altitude Azimuth
BlueWalker 3 2.3 17:26:18 10° WSW 17:30:08 58° NNW 17:33:59 10° ENE
NOSS 2-1 (C) 4.0 17:26:55 10° NW 17:31:14 88° NE 17:37:22 10° SE
ATLAS 5 CENTAUR R/B 3.5 17:29:56 10° WNW 17:32:39 18° NNW 17:35:38 10° NNE
ISS -3.7 17:29:41 10° WNW 17:33:02 65° NNE 17:36:24 10° ESE
Cosmos 1025 Rocket 3.8 17:29:05 10° SSW 17:33:16 55° WNW 17:37:30 10° N
CORIOLIS 4.4 17:28:02 10° SSE 17:33:28 80° WSW 17:38:55 10° NNW
Cosmos 44 3.5 17:29:44 10° SW 17:34:00 60° NW 17:38:29 10° NNE
BREEZE-M DEB (TANK) 2.5 17:31:13 10° WSW 17:34:04 68° S 17:39:32 10° E
Cosmos 2369 3.8 17:29:09 10° SSW 17:34:49 83° WNW 17:40:33 10° NNE
Cosmos 1607 3.9 17:29:52 10° SSW 17:35:57 76° SE 17:42:09 10° NE
Cosmos 1980 Rocket 2.4 17:30:47 10° SSW 17:36:27 81° WNW 17:42:11 10° NNE
NOSS 2-1 (D) 4.1 17:34:52 10° NW 17:39:11 82° SW 17:45:19 10° SE
YAOGAN 1 3.8 17:36:20 10° ESE 17:39:30 20° ENE 17:42:42 10° NNE
Radarsat Rocket 4.1 17:34:34 10° SSE 17:40:32 73° ENE 17:47:11 10° NNW
Cosmos 1697 Rocket 3.9 17:37:32 10° WSW 17:42:51 41° NW 17:48:12 10° NNE
Cosmos 1975 Rocket 4.3 17:41:10 10° SSW 17:45:27 46° WNW 17:49:45 10° N
ADEOS 3.8 17:41:29 10° SSE 17:46:42 79° WSW 17:51:57 10° NNW
USA 290 2.2 17:44:33 10° SSW 17:47:46 87° WNW 17:51:00 10° NNE
CZ-2C R/B 4.5 17:43:10 10° N 17:48:01 33° WNW 17:52:55 10° SW
Cosmos 1536 Rocket 3.6 17:45:06 10° S 17:49:20 56° E 17:53:35 10° NNE
Cosmos 2263 Rocket 2.5 17:45:29 10° NNW 17:51:02 71° WSW 17:56:34 10° SSE
Cosmos 2251 Rocket 3.7 17:54:47 10° SSW 18:00:07 78° WNW 18:05:32 10° NNE
Cosmos 1606 Rocket 4.0 17:58:03 10° N 18:02:04 36° ENE 18:06:04 10° SE
Cosmos 1763 Rocket 3.7 17:58:43 10° NNW 18:03:43 45° ENE 18:08:37 10° SE
PSLV R/B 4.3 18:01:42 10° SE 18:05:01 33° ENE 18:08:23 10° N
USA 215 4.1 18:00:47 10° SSE 18:07:10 54° SW 18:13:35 10° WNW
Cosmos 1328 3.7 18:03:28 10° S 18:07:26 76° E 18:11:25 10° NNE
CZ-4 R/B 2.5 18:05:43 10° ESE 18:09:01 24° ENE 18:12:19 10° NNE
ATLAS 2AS CENTAUR R/B 2.7 18:03:42 10° NW 18:10:46 66° NE 18:17:23 10° SE
Cosmos 2228 2.9 18:06:57 10° N 18:11:11 80° E 18:15:25 10° SSE
Lacrosse 5 rocket 2.3 18:08:39 10° NW 18:11:39 24° NNE 18:13:08 19° NE
Cosmos 1892 Rocket 4.5 18:09:32 10° SE 18:13:14 27° E 18:16:55 10° NNE
COSMO-SKYMED 1 2.5 18:10:10 10° NNE 18:14:32 82° ESE 18:18:53 10° SSW
CZ-4B DEB 4.1 18:12:49 10° SSE 18:18:15 82° ENE 18:23:44 10° NNW
Cosmos 1655 Rocket 4.4 18:14:57 10° NNW 18:21:11 67° W 18:27:20 10° S
Cosmos 724 4.4 18:16:17 10° SW 18:22:12 81° NW 18:28:20 10° NE
Cosmos 1844 Rocket 2.8 18:16:57 10° NNW 18:22:23 49° ENE 18:27:46 10° SE
Cosmos 1184 Rocket 4.1 18:20:20 10° NNW 18:22:28 29° W 18:24:35 10° SSW
RESURS DK-1 3.2 18:18:58 10° N 18:22:35 29° NE 18:23:46 25° E
CZ-4B R/B 3.3 18:18:16 10° SE 18:23:23 50° ENE 18:28:37 10° N
Cosmos 540 Rocket 3.8 18:18:51 10° N 18:23:47 43° ENE 18:28:40 10° SE
CZ-4C R/B 3.2 18:22:29 10° NNE 18:26:25 87° WNW 18:30:06 10° SSW
Cosmos 1844 3.9 18:26:16 10° NNW 18:31:57 51° ENE 18:37:20 11° SE
Cosmos 676 Rocket 4.0 18:28:16 10° S 18:33:28 59° ESE 18:38:26 11° NNE
Cosmos 1726 Rocket 3.4 18:30:50 10° N 18:35:08 61° E 18:39:23 10° SSE
Cosmos 2278 4.3 18:30:06 10° SW 18:35:41 59° WNW 18:41:21 10° NNE
Lacrosse 5 2.1 18:30:57 10° SSW 18:35:54 54° SE 18:38:20 28° ENE
Gblst 52 Del rocket 4.1 18:30:16 10° WSW 18:35:54 79° SSE 18:39:00 27° ENE
Cosmos 407 Rocket 4.2 18:31:22 10° SW 18:36:24 54° WNW 18:41:27 10° NNE
IRIDIUM 106 4.5 18:33:05 10° N 18:38:10 49° E 18:43:13 10° SSE
COSMOS 2455 4.2 18:32:58 10° WSW 18:38:28 36° NW 18:44:01 10° NNE
Okean O Rocket 1.9 18:34:44 10° SE 18:38:54 44° ENE 18:43:06 10° N
Cosmos 2360 Rocket 2.5 18:36:31 10° S 18:41:50 44° ESE 18:44:47 24° NE
Feng Yun 1-1 Rocket 4.4 18:37:28 10° SE 18:42:48 49° ENE 18:48:03 10° N
Cosmos 2333 Rocket 2.9 18:38:21 10° SSE 18:43:12 30° ESE 18:43:54 29° E
Cosmos 2219 Rocket 3.6 18:39:24 10° SSE 18:41:44 18° SE 18:41:44 18° SE
Cosmos 1892 3.0 18:42:11 10° SSW 18:45:52 63° W 18:49:36 10° N
Cosmos 2278 Rocket 3.9 18:44:29 10° N 18:47:29 15° NNE 18:47:29 15° NNE
PLATFORM 4.5 18:47:42 10° NW 18:51:33 79° NE 18:52:32 47° SE
Cosmos 1408 4.4 18:49:23 10° SW 18:52:24 29° WNW 18:55:28 10° NNW
Cosmos 2322 Rocket 2.1 18:46:57 10° SSW 18:52:32 77° ESE 18:56:48 18° NNE
SL-4 R/B 2.4 18:49:36 10° WNW 18:52:58 39° N 18:53:25 37° NNE
Cosmos 1553 Rocket 3.8 18:50:20 10° S 18:56:20 67° E 19:02:27 10° NNE
Cosmos 1633 2.2 18:57:07 10° S 19:00:25 88° S 19:00:25 88° S
SL-08 R/B 4.4 18:56:17 10° N 19:02:33 81° E 19:08:51 10° S
Cosmos 1825 2.4 18:59:08 10° SSW 19:02:48 65° W 19:05:43 16° N
SL-16 R/B 2.6 19:00:10 10° SW 19:05:47 63° WNW 19:10:52 13° NNE
Cosmos 2333 4.4 19:00:58 10° S 19:06:13 43° ESE 19:06:19 43° ESE
ATLAS CENTAUR R/B 3.6 19:02:34 10° W 19:06:23 24° NW 19:09:14 14° N
Cosmos 2058 Rocket 2.9 19:02:54 10° N 19:07:18 76° E 19:09:52 25° SSE
In-Cosmos 22 Rocket 4.4 19:02:49 10° SSW 19:08:37 77° WNW 19:14:29 10° N
BlueWalker 3 3.1 19:05:43 10° WNW 19:09:16 33° N 19:09:19 33° N
ISS -1.9 19:06:41 10° W 19:09:35 27° SW 19:10:24 24° SSW
CSL-04 Debris 4.2 19:12:46 50° ESE 19:13:40 56° ENE 19:18:57 10° N
YAOGAN 1 3.6 19:11:07 10° S 19:15:16 46° W 19:19:27 10° NNW
Cosmos 1461 2.8 19:13:30 10° SW 19:17:46 90° WNW 19:17:57 82° NNE
Meteor 1-27 4.3 19:12:49 10° NNW 19:18:39 80° W 19:24:21 10° S
ATLAS 5 CENTAUR R/B 4.1 19:18:02 10° NNW 19:18:59 11° N 19:19:29 10° N
Spot 1 3.9 19:21:45 75° SSW 19:21:45 75° SSW 19:25:29 10° SSW
CSL-04 Rocket 3.6 19:22:03 58° ENE 19:22:03 58° ENE 19:27:06 10° N
Cosmos 1869 3.7 19:20:56 10° NNW 19:24:45 59° W 19:25:46 42° SSW
Cosmos 1340 4.3 19:23:40 10° NNW 19:25:20 25° NNW 19:25:20 25° NNW
S3M 3.9 19:24:04 10° S 19:30:26 74° E 19:36:49 10° NNE
CZ-2C R/B 3.8 19:30:39 53° ENE 19:31:13 55° E 19:45:02 10° SSE
Cosmos 1943 Rocket 4.4 19:34:15 10° N 19:35:14 12° NNE 19:35:14 12° NNE
Cosmos 1850 Rocket 4.2 19:37:28 10° SSW 19:41:40 60° SSW 19:41:40 60° SSW
CZ-4 R/B 3.0 19:39:57 10° SSW 19:43:45 35° W 19:47:31 10° NNW
Cosmos 1741 Rocket 4.4 19:43:57 10° SSW 19:48:08 57° SSW 19:48:08 57° SSW
Lacrosse 5 rocket 3.4 19:47:14 10° NW 19:48:32 21° NW 19:48:32 21° NW
Cosmos 841 Rocket 4.1 19:51:10 10° NNW 19:56:19 55° WSW 19:56:49 53° SW
RESURS DK-1 4.2 19:56:51 10° NW 19:59:39 29° W 19:59:39 29° W
ATLAS 2AS CENTAUR R/B 4.2 19:55:17 10° NW 20:01:12 31° WSW 20:06:50 10° S
Cosmos 1844 Rocket 4.4 20:01:19 10° NW 20:06:00 29° WSW 20:10:41 10° SSW
Okean O Rocket 4.0 20:12:09 10° SW 20:15:27 21° W 20:18:47 10° NW
Lacrosse 5 3.3 20:14:07 10° W 20:17:34 35° WNW 20:17:34 35° WNW
Cosmos 2360 Rocket 3.5 20:20:49 10° WSW 20:25:57 35° NW 20:26:37 34° NW
Cosmos 2219 Rocket 3.9 20:21:21 10° SW 20:23:32 24° SW 20:23:32 24° SW
Cosmos 2333 Rocket 3.3 20:21:47 10° SW 20:26:00 41° W 20:26:00 41° W
Cosmos 2278 Rocket 4.1 20:27:25 10° NNW 20:29:20 22° NNW 20:29:20 22° NNW
Cosmos 2322 Rocket 4.2 20:32:52 10° W 20:37:13 23° NW 20:38:40 20° NNW
